KA8OAD-1 Weather Reports


Display with metric or nautical units.
time (UTC)temp
F
wind
direction
speed
MPH
gust
MPH
rain 1hr
in
rain 24hr
in
rain mn
in
humidity
%
barometer
mb
20260906171005 79 13 2.0 5.0 0.00 0.00 0.00 56 1016.9
20260906170503 78 61 1.0 4.0 0.00 0.00 0.00 56 1016.9
20260906170005 78 110 2.0 6.0 0.00 0.00 0.00 54 1016.9
20260906165503 78 92 2.0 6.0 0.00 0.00 0.00 54 1016.9
20260906165005 79 43 2.0 4.0 0.00 0.00 0.00 54 1017.0
20260906164504 78 84 2.0 4.0 0.00 0.00 0.00 55 1016.9
20260906164005 78 158 1.0 5.0 0.00 0.00 0.00 59 1017.0
20260906163504 77 153 2.0 5.0 0.00 0.00 0.00 56 1017.0
20260906162005 77 104 2.0 6.0 0.00 0.01 0.00 57 1017.0
20260906161004 76 88 1.0 4.0 0.00 0.03 0.00 61 1017.1
20260906160503 76 338 2.0 4.0 0.00 0.03 0.00 63 1017.1
20260906160005 75 317 2.0 6.0 0.00 0.03 0.00 65 1017.1
20260906154504 74 97 1.0 5.0 0.00 0.03 0.00 65 1017.3
20260906154005 74 68 2.0 5.0 0.00 0.03 0.00 65 1017.2
20260906153503 74 48 2.0 5.0 0.00 0.03 0.00 66 1017.2
20260906153005 73 14 1.0 5.0 0.00 0.03 0.00 67 1017.2
20260906152504 73 335 2.0 5.0 0.00 0.03 0.00 69 1017.1
20260906152004 72 359 1.0 5.0 0.00 0.03 0.00 71 1017.1
20260906151504 71 72 1.0 4.0 0.00 0.03 0.00 73 1017.1
20260906151004 71 24 1.0 4.0 0.00 0.03 0.00 74 1017.1
20260906150503 70 335 1.0 3.0 0.00 0.03 0.00 75 1017.2
20260906150004 70 337 1.0 5.0 0.00 0.03 0.00 75 1017.2
20260906145503 70 346 1.0 5.0 0.00 0.03 0.00 76 1017.0
20260906145004 69 94 1.0 4.0 0.00 0.03 0.00 78 1017.1
20260906144503 69 145 1.0 3.0 0.00 0.03 0.00 79 1017.1
20260906143504 68 2 1.0 5.0 0.00 0.03 0.00 82 1017.0
20260906143005 67 341 1.0 3.0 0.00 0.03 0.00 84 1017.0
20260906142504 67 324 0.0 3.0 0.00 0.03 0.00 85 1017.0
20260906142004 66 0 0.0 0.0 0.00 0.03 0.00 87 1016.9
20260906141004 65 0 0.0 0.0 0.00 0.03 0.00 89 1016.9
20260906140504 64 0 0.0 0.0 0.00 0.03 0.00 90 1016.9
20260906140005 64 0 0.0 0.0 0.00 0.03 0.00 91 1016.8
20260906135504 64 0 0.0 0.0 0.00 0.03 0.00 92 1016.9
20260906135004 63 0 0.0 0.0 0.00 0.03 0.00 92 1017.0
20260906134504 63 0 0.0 0.0 0.00 0.03 0.00 93 1016.8
20260906134004 63 0 0.0 0.0 0.00 0.03 0.00 93 1016.7
20260906133005 62 0 0.0 0.0 0.00 0.03 0.00 94 1016.7
20260906132504 62 0 0.0 0.0 0.00 0.03 0.00 93 1016.7
20260906132004 61 0 0.0 0.0 0.00 0.03 0.00 93 1016.7
20260906131504 61 0 0.0 0.0 0.00 0.03 0.00 93 1016.7
20260906131004 60 0 0.0 0.0 0.00 0.03 0.00 93 1016.7
20260906130504 60 0 0.0 0.0 0.00 0.03 0.00 93 1016.7
20260906130004 60 0 0.0 0.0 0.00 0.03 0.00 93 1016.6
20260906125504 59 0 0.0 0.0 0.00 0.03 0.00 93 1016.6
20260906125004 59 0 0.0 0.0 0.00 0.03 0.00 93 1016.6
20260906124005 58 0 0.0 0.0 0.00 0.03 0.00 93 1016.5
20260906123503 57 0 0.0 0.0 0.00 0.03 0.00 92 1016.3
20260906123005 57 0 0.0 0.0 0.00 0.03 0.00 92 1016.2
20260906122004 57 0 0.0 0.0 0.00 0.03 0.00 92 1016.3
20260906121504 56 0 0.0 0.0 0.00 0.03 0.00 92 1016.2
20260906121004 56 0 0.0 0.0 0.00 0.03 0.00 92 1016.2
20260906120504 56 0 0.0 0.0 0.00 0.03 0.00 92 1016.2
20260906120006 56 0 0.0 0.0 0.00 0.03 0.00 91 1016.2
20260906115503 56 0 0.0 0.0 0.00 0.03 0.00 91 1016.1
20260906115004 56 0 0.0 0.0 0.00 0.03 0.00 91 1016.0
20260906114504 56 0 0.0 0.0 0.00 0.03 0.00 91 1016.0
20260906114004 56 0 0.0 0.0 0.00 0.03 0.00 91 1015.9
20260906113504 56 0 0.0 0.0 0.00 0.03 0.00 91 1015.8
20260906113004 56 0 0.0 0.0 0.00 0.03 0.00 91 1015.7
20260906112504 56 0 0.0 0.0 0.00 0.03 0.00 91 1015.7
20260906111504 56 0 0.0 0.0 0.00 0.03 0.00 91 1015.6
20260906111005 56 0 0.0 0.0 0.00 0.03 0.00 90 1015.5
20260906110503 56 0 0.0 0.0 0.00 0.03 0.00 90 1015.4
20260906110005 56 0 0.0 0.0 0.00 0.03 0.00 90 1015.5
20260906105503 56 0 0.0 0.0 0.00 0.03 0.00 90 1015.5
20260906105005 56 0 0.0 0.0 0.00 0.03 0.00 90 1015.5
20260906104004 56 0 0.0 0.0 0.00 0.03 0.00 90 1015.4
20260906103504 56 0 0.0 0.0 0.00 0.03 0.00 90 1015.3
20260906103004 56 0 0.0 0.0 0.00 0.03 0.00 90 1015.4
20260906102504 56 0 0.0 0.0 0.00 0.03 0.00 90 1015.4
20260906102004 56 0 0.0 0.0 0.00 0.03 0.00 90 1015.4
20260906101004 56 0 0.0 0.0 0.00 0.03 0.00 90 1015.3
20260906100504 56 0 0.0 0.0 0.00 0.03 0.00 90 1015.4
20260906100005 56 0 0.0 0.0 0.00 0.03 0.00 90 1015.4
20260906095503 56 0 0.0 0.0 0.00 0.03 0.00 90 1015.4
20260906094504 57 0 0.0 0.0 0.00 0.03 0.00 90 1015.3
20260906094005 57 0 0.0 0.0 0.00 0.03 0.00 90 1015.2
20260906093503 57 0 0.0 0.0 0.00 0.03 0.00 90 1015.1
20260906093005 57 0 0.0 0.0 0.00 0.03 0.00 89 1015.0
20260906092503 57 0 0.0 0.0 0.00 0.03 0.00 89 1015.1
20260906092005 57 0 0.0 0.0 0.00 0.03 0.00 90 1015.1
20260906091504 57 0 0.0 0.0 0.00 0.03 0.00 90 1015.2
20260906091004 57 0 0.0 0.0 0.00 0.03 0.00 90 1015.3
20260906090504 57 0 0.0 0.0 0.00 0.03 0.00 90 1015.4
20260906090004 57 0 0.0 0.0 0.00 0.03 0.00 89 1015.3
20260906085504 57 0 0.0 0.0 0.00 0.03 0.00 90 1015.3
20260906084504 57 0 0.0 0.0 0.00 0.03 0.00 89 1015.1
20260906084004 57 0 0.0 0.0 0.00 0.03 0.00 89 1015.1
20260906083503 57 0 0.0 0.0 0.00 0.03 0.00 89 1015.1
20260906083004 58 0 0.0 0.0 0.00 0.03 0.00 89 1015.1
20260906082504 58 0 0.0 0.0 0.00 0.03 0.00 89 1015.0
20260906082004 58 0 0.0 0.0 0.00 0.03 0.00 89 1015.0
20260906081503 58 0 0.0 0.0 0.00 0.03 0.00 89 1015.0
20260906081004 58 0 0.0 0.0 0.00 0.03 0.00 89 1014.9
20260906080005 58 0 0.0 0.0 0.00 0.03 0.00 89 1014.7
20260906075504 58 0 0.0 0.0 0.00 0.03 0.00 89 1014.5
20260906075005 58 0 0.0 0.0 0.00 0.03 0.00 89 1014.5
20260906074004 58 0 0.0 0.0 0.00 0.03 0.00 89 1014.6
20260906073504 58 0 0.0 0.0 0.00 0.03 0.00 88 1014.6
20260906073004 59 0 0.0 0.0 0.00 0.03 0.00 88 1014.5
20260906072504 59 0 0.0 0.0 0.00 0.03 0.00 89 1014.6
20260906072004 59 0 0.0 0.0 0.00 0.03 0.00 88 1014.5
20260906071503 59 0 0.0 0.0 0.00 0.03 0.00 88 1014.5
20260906071004 59 0 0.0 0.0 0.00 0.03 0.00 88 1014.6
20260906070503 59 0 0.0 0.0 0.00 0.03 0.00 88 1014.7
20260906065004 60 0 0.0 0.0 0.00 0.03 0.00 88 1014.6
20260906064503 60 0 0.0 0.0 0.00 0.03 0.00 87 1014.6
20260906064004 60 0 0.0 0.0 0.00 0.03 0.00 87 1014.6
20260906063503 60 0 0.0 0.0 0.00 0.03 0.00 87 1014.6
20260906063005 60 0 0.0 0.0 0.00 0.03 0.00 87 1014.5
20260906062503 60 0 0.0 0.0 0.00 0.03 0.00 87 1014.6
20260906061503 60 0 0.0 0.0 0.00 0.03 0.00 87 1014.6
20260906061005 60 0 0.0 0.0 0.00 0.03 0.00 87 1014.5
20260906060504 60 0 0.0 0.0 0.00 0.03 0.00 87 1014.6
20260906060004 60 0 0.0 0.0 0.00 0.03 0.00 87 1014.6
20260906055504 61 0 0.0 0.0 0.00 0.03 0.00 87 1014.5
20260906055005 61 0 0.0 0.0 0.00 0.03 0.00 87 1014.5
20260906054503 61 0 0.0 0.0 0.00 0.03 0.00 87 1014.4
20260906054005 61 0 0.0 0.0 0.00 0.03 0.00 87 1014.4
20260906053503 61 0 0.0 0.0 0.00 0.03 0.00 87 1014.4
20260906053005 61 0 0.0 0.0 0.00 0.03 0.00 87 1014.4
20260906052504 61 0 0.0 0.0 0.00 0.03 0.00 87 1014.3
20260906052004 61 0 0.0 0.0 0.00 0.03 0.00 87 1014.3
20260906051504 61 0 0.0 0.0 0.00 0.03 0.00 87 1014.5
20260906051004 61 0 0.0 0.0 0.00 0.03 0.00 87 1014.5
20260906050503 61 0 0.0 0.0 0.00 0.03 0.00 87 1014.4
20260906050005 61 0 0.0 0.0 0.00 0.03 0.00 87 1014.3
20260906045503 61 319 0.0 2.0 0.00 0.03 0.00 87 1014.3
20260906045004 61 319 0.0 2.0 0.00 0.03 0.00 87 1014.4
20260906044504 61 0 0.0 0.0 0.00 0.03 0.00 87 1014.3
20260906044005 61 0 0.0 0.0 0.00 0.03 0.00 87 1014.3
20260906043503 62 0 0.0 0.0 0.00 0.03 0.00 87 1014.4
20260906043004 62 0 0.0 0.0 0.00 0.03 0.00 87 1014.4
20260906042503 62 0 0.0 0.0 0.00 0.03 0.00 87 1014.3
20260906042005 62 0 0.0 0.0 0.00 0.03 0.00 87 1014.3
20260906041005 62 0 0.0 0.0 0.00 0.03 0.00 87 1014.4
20260906040503 62 0 0.0 0.0 0.00 0.03 0.00 86 1014.5
20260906035504 62 0 0.0 0.0 0.00 0.03 0.03 86 1014.5
20260906035004 62 0 0.0 0.0 0.00 0.03 0.03 86 1014.5
20260906034504 62 0 0.0 0.0 0.00 0.03 0.03 86 1014.5
20260906034004 63 0 0.0 0.0 0.00 0.03 0.03 86 1014.5
20260906033503 63 0 0.0 0.0 0.00 0.03 0.03 85 1014.5
20260906033005 63 0 0.0 0.0 0.00 0.03 0.03 85 1014.5
20260906032504 63 0 0.0 0.0 0.00 0.03 0.03 85 1014.4
20260906032004 63 0 0.0 0.0 0.00 0.03 0.03 85 1014.5
20260906031503 63 0 0.0 0.0 0.00 0.03 0.03 85 1014.6
20260906031004 63 0 0.0 0.0 0.00 0.03 0.03 84 1014.6
20260906030504 64 0 0.0 0.0 0.00 0.03 0.03 84 1014.5
20260906030004 64 0 0.0 0.0 0.00 0.03 0.03 84 1014.5
20260906025503 64 0 0.0 0.0 0.00 0.03 0.03 84 1014.5
20260906024503 64 0 0.0 0.0 0.00 0.03 0.03 83 1014.3
20260906024004 64 0 0.0 0.0 0.00 0.03 0.03 83 1014.2
20260906023504 65 0 0.0 0.0 0.00 0.03 0.03 83 1014.2
20260906023004 65 0 0.0 0.0 0.00 0.03 0.03 83 1014.1
20260906022503 65 0 0.0 0.0 0.00 0.03 0.03 83 1014.1
20260906022004 65 0 0.0 0.0 0.00 0.03 0.03 82 1014.1
20260906021004 66 0 0.0 0.0 0.00 0.03 0.03 82 1014.1
20260906020504 66 0 0.0 0.0 0.00 0.03 0.03 81 1014.1
20260906020004 66 0 0.0 0.0 0.00 0.03 0.03 80 1014.0
20260906015504 66 0 0.0 0.0 0.00 0.03 0.03 80 1014.0
20260906015004 66 0 0.0 0.0 0.00 0.03 0.03 80 1014.0
20260906014504 67 0 0.0 0.0 0.00 0.03 0.03 80 1014.0
20260906014004 67 0 0.0 0.0 0.00 0.03 0.03 79 1013.9
20260906013503 67 0 0.0 0.0 0.00 0.03 0.03 79 1013.8
20260906012504 68 0 0.0 0.0 0.00 0.03 0.03 78 1013.9
20260906012004 68 0 0.0 0.0 0.00 0.03 0.03 78 1013.9
20260906011004 68 0 0.0 0.0 0.00 0.03 0.03 77 1013.9
20260906010504 69 0 0.0 0.0 0.00 0.03 0.03 76 1013.9
20260906010004 69 0 0.0 0.0 0.00 0.03 0.03 76 1013.8
20260906005504 69 0 0.0 0.0 0.00 0.03 0.03 75 1013.7
20260906005005 69 0 0.0 0.0 0.00 0.03 0.03 75 1013.8
20260906004503 70 0 0.0 0.0 0.00 0.03 0.03 74 1013.9
20260906003504 70 0 0.0 0.0 0.00 0.03 0.03 74 1013.8
20260906003004 70 0 0.0 0.0 0.00 0.03 0.03 74 1013.7
20260906002504 71 0 0.0 0.0 0.00 0.03 0.03 73 1013.7
20260906001503 71 319 0.0 2.0 0.00 0.03 0.03 73 1013.6
20260906000504 72 0 0.0 0.0 0.00 0.03 0.03 73 1013.4
20260905235503 72 319 0.0 2.0 0.00 0.03 0.03 72 1013.3
20260905235005 72 319 0.0 2.0 0.00 0.03 0.03 72 1013.4
20260905234503 73 319 0.0 2.0 0.00 0.03 0.03 72 1013.2
20260905233504 73 349 1.0 3.0 0.00 0.03 0.03 71 1013.0
20260905232504 74 348 1.0 3.0 0.00 0.03 0.03 72 1013.1
20260905231504 74 351 1.0 3.0 0.00 0.03 0.03 71 1013.0
20260905230504 75 341 1.0 4.0 0.00 0.03 0.03 72 1012.8
20260905230004 75 339 1.0 3.0 0.00 0.03 0.03 71 1012.7
20260905225504 75 339 1.0 3.0 0.00 0.03 0.03 72 1012.8
20260905225004 75 9 1.0 3.0 0.00 0.03 0.03 72 1012.7
20260905224504 75 16 1.0 3.0 0.00 0.03 0.03 73 1012.6
20260905224004 76 42 1.0 3.0 0.00 0.03 0.03 73 1012.6
20260905223004 76 44 2.0 7.0 0.00 0.03 0.03 72 1012.4
20260905222504 76 5 2.0 7.0 0.00 0.03 0.03 73 1012.4
20260905221503 76 327 2.0 5.0 0.00 0.03 0.03 73 1012.3
20260905221005 76 307 1.0 3.0 0.00 0.03 0.03 74 1012.4
20260905220503 76 7 1.0 3.0 0.00 0.03 0.03 74 1012.4
20260905220005 77 54 1.0 3.0 0.00 0.03 0.03 75 1012.3
20260905215503 77 318 1.0 4.0 0.00 0.03 0.03 77 1012.3
20260905215004 77 315 1.0 4.0 0.00 0.03 0.03 76 1012.1
20260905214504 77 320 1.0 3.0 0.00 0.03 0.03 76 1012.2
20260905214005 77 319 2.0 4.0 0.00 0.03 0.03 76 1012.1
20260905213503 77 319 1.0 4.0 0.00 0.03 0.03 76 1012.1
20260905213005 77 320 1.0 3.0 0.00 0.03 0.03 77 1012.1
20260905212503 77 321 1.0 6.0 0.00 0.03 0.03 77 1012.1
20260905212005 77 322 1.0 6.0 0.00 0.03 0.03 78 1012.1
20260905211503 77 310 1.0 6.0 0.00 0.03 0.03 78 1012.0
20260905211005 77 290 1.0 3.0 0.00 0.03 0.03 78 1012.1
20260905210503 77 285 1.0 4.0 0.00 0.03 0.03 78 1012.0
20260905210004 77 249 1.0 4.0 0.00 0.03 0.03 78 1011.9
20260905205504 77 167 1.0 4.0 0.00 0.03 0.03 78 1012.0
20260905205004 77 282 1.0 3.0 0.00 0.03 0.03 77 1012.1
20260905204504 77 323 1.0 6.0 0.00 0.03 0.03 77 1012.1
20260905203504 77 331 1.0 4.0 0.00 0.03 0.03 78 1012.3
20260905203004 77 332 1.0 4.0 0.00 0.03 0.03 78 1012.4
20260905202504 77 327 2.0 4.0 0.00 0.03 0.03 78 1012.3
20260905202004 77 2 1.0 4.0 0.00 0.03 0.03 78 1012.5
20260905201503 77 77 0.0 3.0 0.00 0.03 0.03 79 1012.4
20260905201005 76 79 1.0 3.0 0.00 0.03 0.03 78 1012.4
20260905200503 76 46 1.0 5.0 0.00 0.03 0.03 77 1012.5
20260905195004 77 84 1.0 4.0 0.00 0.03 0.03 79 1012.4
20260905194504 77 49 1.0 4.0 0.00 0.03 0.03 79 1012.3
20260905194007 76 23 1.0 2.0 0.00 0.03 0.03 81 1012.4
20260905193504 76 37 1.0 2.0 0.00 0.03 0.03 81 1012.4
20260905193005 76 60 1.0 2.0 0.00 0.03 0.03 81 1012.4
20260905192504 76 47 1.0 4.0 0.00 0.03 0.03 81 1012.5
20260905191504 76 22 0.0 3.0 0.00 0.03 0.03 82 1012.5
20260905190503 76 37 1.0 3.0 0.00 0.03 0.03 83 1012.6
20260905185503 76 0 0.0 0.0 0.00 0.03 0.03 84 1012.5
20260905185005 76 317 0.0 2.0 0.00 0.03 0.03 84 1012.6
20260905184503 76 315 1.0 4.0 0.00 0.03 0.03 84 1012.6
20260905184005 76 312 1.0 6.0 0.00 0.03 0.03 85 1012.6
20260905183503 76 324 1.0 6.0 0.00 0.03 0.03 85 1012.7
20260905183005 76 335 1.0 4.0 0.00 0.03 0.03 85 1012.6
20260905182503 76 338 1.0 3.0 0.00 0.03 0.03 86 1012.7
20260905182005 76 334 1.0 4.0 0.00 0.03 0.03 86 1012.7
20260905181503 76 329 0.0 4.0 0.00 0.03 0.03 86 1012.7
20260905180504 76 0 0.0 0.0 0.00 0.03 0.03 88 1012.8
20260905180004 76 0 0.0 0.0 0.00 0.03 0.03 88 1012.8
20260905175503 75 0 0.0 0.0 0.00 0.03 0.03 88 1012.9
20260905175005 75 0 0.0 0.0 0.00 0.03 0.03 88 1012.8
20260905174504 75 0 0.0 0.0 0.00 0.03 0.03 88 1012.8
20260905174004 75 0 0.0 0.0 0.00 0.03 0.03 88 1012.8
20260905173504 75 0 0.0 0.0 0.00 0.03 0.03 88 1012.9
20260905173004 75 0 0.0 0.0 0.01 0.03 0.03 88 1012.9
20260905172004 75 284 0.0 2.0 0.01 0.03 0.03 88 1013.0
20260905171504 75 284 0.0 2.0 0.03 0.03 0.03 88 1013.1